Weather History for KTWM - July, 2013

Change the Weather History Date:

Monday, July 8, 2013

  Actual Average Record
Temperature  
Mean Temperature 60 °F -  
Max Temperature 69 °F 75 °F 138 °F (1997)
Min Temperature 51 °F 52 °F 42 °F (1972)
Degree Days  
Heating Degree Days 5    
Growing Degree Days 10 (Base 50)    
Moisture  
Dew Point 52 °F    
Average Humidity 81    
Maximum Humidity 88    
Minimum Humidity 68    
Precipitation  
Precipitation 0.00 in - - ()
Sea Level Pressure  
Sea Level Pressure 29.99 in    
Wind  
Wind Speed 4 mph (East)    
Max Wind Speed 9 mph    
Max Gust Speed 20 mph    
Visibility 7 miles    
Events Fog , Thunderstorm    
Averages and records for this station are not official NWS values.
T = Trace of Precipitation, MM = Missing Value Source: NWS Daily Summary

Daily Weather History Graph

Daily Weather History Graph

Search for Another Location

Airport or City:

Trip Planner

Search our weather history database for the weather conditions in past years. The results will help you decide how hot, cold, wet, or windy it might be!

Date:

Astronomy

Jul. 08, 2013 Rise Set
Actual Time 5:20 AM CDT 9:02 PM CDT
Civil Twilight 4:41 AM CDT 9:41 PM CDT
Nautical Twilight 3:49 AM CDT 10:34 PM CDT
Astronomical Twilight 2:35 AM CDT 11:46 PM CDT
Moon 5:56 AM CDT (7/8) 8:57 PM CDT (7/8)
Length of Visible Light 16h 59m
Length of Day
15h 42m
New Moon, 0% of the Moon is Illuminated
Jul 8
New Moon
Jul 15
First Quarter
Jul 22
Full
Jul 29
Last Quarter
Aug 6
New

Hourly Weather History & Observations

Time (CDT) Temp. Dew Point Humidity Pressure Visibility Wind Dir Wind Speed Gust Speed Precip Events Conditions
12:14 AM 51.8 °F 46.4 °F 82% 29.98 in 0.5 mi NE 9.2 mph - N/A Thunderstorm Haze
12:33 AM 51.8 °F 46.4 °F 82% 29.97 in 0.5 mi ENE 6.9 mph - N/A   Haze
12:53 AM 51.8 °F 46.4 °F 82% 29.95 in 2.5 mi NNE 8.1 mph 19.6 mph N/A   Haze
1:14 AM 53.6 °F 48.2 °F 82% 29.95 in 10.0 mi NNE 9.2 mph - N/A   Overcast
1:33 AM 53.6 °F 48.2 °F 82% 29.95 in 7.0 mi NNE 9.2 mph - N/A   Overcast
1:53 AM 55.4 °F 50.0 °F 82% 29.94 in 10.0 mi NNE 9.2 mph - N/A   Overcast
2:14 AM 55.4 °F 51.8 °F 88% 29.96 in 10.0 mi NNE 9.2 mph - N/A   Overcast
2:33 AM 55.4 °F 51.8 °F 88% 29.97 in 10.0 mi East 4.6 mph - N/A   Overcast
2:53 AM 55.4 °F 51.8 °F 88% 29.97 in 10.0 mi NE 5.8 mph - N/A   Overcast
3:14 AM 55.4 °F 51.8 °F 88% 29.97 in 10.0 mi NE 3.5 mph - N/A   Overcast
3:33 AM 55.4 °F 51.8 °F 88% 29.97 in 10.0 mi East 3.5 mph - N/A   Overcast
3:53 AM 55.4 °F 51.8 °F 88% 29.97 in 10.0 mi ENE 3.5 mph - N/A   Overcast
4:14 AM 55.4 °F 50.0 °F 82% 29.96 in 3.0 mi ENE 5.8 mph - N/A   Haze
4:33 AM 55.4 °F 50.0 °F 82% 29.97 in 1.2 mi NE 4.6 mph - N/A   Haze
4:53 AM 55.4 °F 50.0 °F 82% 29.97 in 1.0 mi NE 6.9 mph - N/A   Haze
5:14 AM 55.4 °F 50.0 °F 82% 29.97 in 1.0 mi NE 3.5 mph - N/A   Haze
5:33 AM 55.4 °F 50.0 °F 82% 29.97 in 0.8 mi ENE 3.5 mph - N/A   Haze
5:53 AM 55.4 °F 50.0 °F 82% 29.97 in 0.2 mi East 4.6 mph - N/A   Haze
6:14 AM 55.4 °F 50.0 °F 82% 29.97 in 0.2 mi ENE 3.5 mph - N/A   Haze
6:33 AM 55.4 °F 50.0 °F 82% 29.97 in 0.2 mi Calm Calm - N/A   Haze
6:53 AM 55.4 °F 50.0 °F 82% 29.97 in 0.5 mi Calm Calm - N/A   Haze
7:14 AM 55.4 °F 50.0 °F 82% 29.98 in 0.5 mi Calm Calm - N/A   Haze
7:33 AM 55.4 °F 51.8 °F 88% 29.99 in 0.5 mi Calm Calm - N/A Fog Fog
7:53 AM 55.4 °F 51.8 °F 88% 30.00 in 0.5 mi SSE 4.6 mph - N/A   Haze
8:14 AM 55.4 °F 50.0 °F 82% 30.00 in 0.8 mi Calm Calm - N/A   Haze
8:33 AM 55.4 °F 50.0 °F 82% 30.00 in 0.8 mi East 3.5 mph - N/A   Haze
8:53 AM 55.4 °F 50.0 °F 82% 30.01 in 0.8 mi East 5.8 mph - N/A   Haze
9:13 AM 53.6 °F 50.0 °F 88% 30.01 in 1.0 mi East 5.8 mph - N/A   Overcast
9:33 AM 55.4 °F 50.0 °F 82% 30.02 in 1.2 mi East 4.6 mph - N/A   Haze
9:54 AM 55.4 °F 50.0 °F 82% 30.02 in 1.5 mi East 4.6 mph - N/A   Haze
10:13 AM 55.4 °F 50.0 °F 82% 30.03 in 2.5 mi East 3.5 mph - N/A   Haze
10:33 AM 55.4 °F 51.8 °F 88% 30.04 in 10.0 mi Calm Calm - N/A   Overcast
10:54 AM 55.4 °F 51.8 °F 88% 30.04 in 7.0 mi ESE 4.6 mph - N/A   Overcast
11:13 AM 55.4 °F 50.0 °F 82% 30.04 in 2.0 mi East 3.5 mph - N/A   Haze
11:33 AM 55.4 °F 51.8 °F 88% 30.04 in 10.0 mi Calm Calm - N/A   Overcast
11:53 AM 57.2 °F 53.6 °F 88% 30.04 in 10.0 mi Calm Calm - N/A   Overcast
12:13 PM 59.0 °F 53.6 °F 82% 30.03 in 10.0 mi Calm Calm - N/A   Overcast
12:34 PM 62.6 °F 55.4 °F 77% 30.02 in 7.0 mi Calm Calm - N/A   Overcast
12:53 PM 62.6 °F 55.4 °F 77% 30.02 in 10.0 mi Calm Calm - N/A   Overcast
1:13 PM 64.4 °F 57.2 °F 77% 30.01 in 10.0 mi Calm Calm - N/A   Overcast
1:34 PM 64.4 °F 57.2 °F 77% 30.01 in 10.0 mi Calm Calm - N/A   Overcast
1:53 PM 64.4 °F 55.4 °F 73% 30.01 in 10.0 mi SSE 4.6 mph - N/A   Overcast
2:13 PM 62.6 °F 55.4 °F 77% 30.01 in 10.0 mi SSE 5.8 mph - N/A   Overcast
2:34 PM 62.6 °F 55.4 °F 77% 30.01 in 10.0 mi SSE 3.5 mph - N/A   Overcast
2:53 PM 64.4 °F 55.4 °F 73% 30.01 in 10.0 mi Calm Calm - N/A   Overcast
3:13 PM 64.4 °F 57.2 °F 77% 30.00 in 10.0 mi Calm Calm - N/A   Overcast
3:34 PM 66.2 °F 59.0 °F 78% 30.00 in 10.0 mi Calm Calm - N/A   Overcast
3:53 PM 69.8 °F 60.8 °F 73% 30.00 in 10.0 mi Calm Calm - N/A   Mostly Cloudy
4:13 PM 69.8 °F 59.0 °F 68% 30.00 in 10.0 mi SSE 5.8 mph - N/A   Clear
4:33 PM 68.0 °F 57.2 °F 68% 29.99 in 10.0 mi SE 3.5 mph - N/A   Clear
4:54 PM 66.2 °F 57.2 °F 73% 29.99 in 10.0 mi SSE 4.6 mph - N/A   Clear
5:13 PM 64.4 °F 55.4 °F 73% 29.99 in 10.0 mi South 3.5 mph - N/A   Clear
5:33 PM 64.4 °F 55.4 °F 73% 29.99 in 10.0 mi Calm Calm - N/A   Clear
5:54 PM 62.6 °F 55.4 °F 77% 29.99 in 10.0 mi Calm Calm - N/A   Clear
6:13 PM 62.6 °F 53.6 °F 72% 29.99 in 10.0 mi SE 3.5 mph - N/A   Clear
6:33 PM 60.8 °F 53.6 °F 77% 29.99 in 10.0 mi SE 3.5 mph - N/A   Clear
6:53 PM 60.8 °F 53.6 °F 77% 29.99 in 10.0 mi East 3.5 mph - N/A   Clear
7:14 PM 60.8 °F 53.6 °F 77% 29.98 in 10.0 mi East 3.5 mph - N/A   Clear
7:33 PM 60.8 °F 53.6 °F 77% 29.99 in 10.0 mi ENE 3.5 mph - N/A   Clear
7:53 PM 59.0 °F 51.8 °F 77% 29.99 in 10.0 mi Calm Calm - N/A   Clear
8:14 PM 57.2 °F 51.8 °F 82% 29.99 in 10.0 mi Calm Calm - N/A   Clear
8:33 PM 57.2 °F 51.8 °F 82% 29.98 in 10.0 mi Calm Calm - N/A   Clear
8:53 PM 55.4 °F 51.8 °F 88% 29.99 in 10.0 mi Calm Calm - N/A   Clear
9:13 PM 55.4 °F 51.8 °F 88% 29.98 in 10.0 mi Calm Calm - N/A   Clear
9:33 PM 55.4 °F 50.0 °F 82% 29.99 in 10.0 mi Calm Calm - N/A   Clear
9:54 PM 53.6 °F 50.0 °F 88% 29.99 in 10.0 mi Calm Calm - N/A   Clear
10:13 PM 53.6 °F 48.2 °F 82% 29.99 in 10.0 mi Calm Calm - N/A   Clear
10:33 PM 53.6 °F 48.2 °F 82% 30.00 in 10.0 mi Calm Calm - N/A   Clear
10:54 PM 53.6 °F 48.2 °F 82% 29.99 in 10.0 mi Calm Calm - N/A   Clear
11:13 PM 53.6 °F 48.2 °F 82% 30.00 in 10.0 mi Calm Calm - N/A   Clear
11:33 PM 51.8 °F 46.4 °F 82% 30.00 in 10.0 mi Calm Calm - N/A   Clear
11:54 PM 51.8 °F 46.4 °F 82% 30.00 in 10.0 mi Calm Calm - N/A   Clear